Location: D�derode
(51.8092°N, 10.1065°E)
Time: 21:31:19
(UTC+00:00)

ARGOS - Pass Details

Date: 01 December 2020
Orbit: 820 x 835 km, 98.4° (Epoch: 25 January)

Event Time Altitude Azimuth Distance (km) Brightness Sun altitude
Exits shadow 18:08:30 61° 22° (NNE) 946 3.2 -26.2°
Drops below altitude 10° 18:13:06 10° 349° (N) 2,444 5.7 -26.9°
Sets 18:15:28 0° 347° (NNW) 3,379 6.5 -27.3°
